WI3X Weather Reports


time (UTC)temp
C
wind
direction
speed
KPH
gust
KPH
rain 1hr
cm
rain 24hr
cm
rain mn
cm
humidity
%
barometer
mb
20260506002003 24 189 12.9 19.3 0.00 0.00 0.00 35 1007.2
20260506001024 25 193 16.1 25.7 0.00 0.00 0.00 35 1007.1
20260506000003 25 200 19.3 33.8 0.00 0.00 0.00 34 1007.2
20260505235003 25 198 20.9 32.2 0.00 0.00 0.00 33 1007.1
20260505234003 25 201 22.5 33.8 0.00 0.00 0.00 33 1007.0
20260505233003 25 202 22.5 37.0 0.00 0.00 0.00 33 1006.9
20260505232003 26 204 25.7 41.8 0.00 0.00 0.00 32 1006.9
20260505231003 26 203 25.7 43.5 0.00 0.00 0.00 31 1006.9
20260505230003 26 200 27.4 51.5 0.00 0.00 0.00 33 1006.8
20260505225004 26 198 27.4 45.1 0.00 0.00 0.00 33 1006.7
20260505224004 26 199 24.1 37.0 0.00 0.00 0.00 33 1006.7
20260505223004 26 203 32.2 48.3 0.00 0.00 0.00 32 1006.7
20260505222004 27 202 29.0 49.9 0.00 0.00 0.00 33 1006.9
20260505221004 27 205 24.1 45.1 0.00 0.00 0.00 34 1006.9
20260505220004 27 203 22.5 38.6 0.00 0.00 0.00 35 1006.8
20260505215004 27 202 25.7 41.8 0.00 0.00 0.00 35 1006.8
20260505214004 27 200 29.0 48.3 0.00 0.00 0.00 35 1006.8
20260505213004 27 212 24.1 37.0 0.00 0.00 0.00 34 1006.8
20260505212005 27 198 30.6 51.5 0.00 0.00 0.00 33 1006.7
20260505211004 27 202 30.6 48.3 0.00 0.00 0.00 32 1006.6
20260505210004 27 201 30.6 49.9 0.00 0.00 0.00 33 1006.7
20260505205004 27 201 33.8 48.3 0.00 0.00 0.00 33 1006.8
20260505204004 27 205 30.6 48.3 0.00 0.00 0.00 33 1006.7
20260505203004 27 202 32.2 51.5 0.00 0.00 0.00 33 1006.8
20260505202004 27 199 32.2 46.7 0.00 0.00 0.00 34 1006.8
20260505201004 27 195 27.4 45.1 0.00 0.00 0.00 33 1006.9
20260505200004 27 205 29.0 56.3 0.00 0.00 0.00 36 1006.9
20260505195025 28 205 27.4 49.9 0.00 0.00 0.00 36 1007.2
20260505194004 28 220 24.1 38.6 0.00 0.00 0.00 36 1007.2
20260505193004 28 208 22.5 35.4 0.00 0.00 0.00 35 1007.2
20260505192004 28 206 27.4 45.1 0.00 0.00 0.00 35 1007.4
20260505191004 28 207 27.4 45.1 0.00 0.00 0.00 34 1007.4
20260505190005 28 206 29.0 45.1 0.00 0.00 0.00 36 1007.6
20260505185004 28 204 29.0 45.1 0.00 0.00 0.00 36 1007.8
20260505184004 27 203 29.0 43.5 0.00 0.00 0.00 37 1007.8
20260505183004 27 200 24.1 43.5 0.00 0.00 0.00 35 1007.8
20260505182004 27 200 27.4 41.8 0.00 0.00 0.00 37 1007.9
20260505181004 27 205 20.9 40.2 0.00 0.00 0.00 39 1008.2
20260505180004 27 199 32.2 45.1 0.00 0.00 0.00 37 1008.3
20260505175004 27 198 24.1 37.0 0.00 0.00 0.00 40 1008.2
20260505174004 27 203 22.5 40.2 0.00 0.00 0.00 39 1008.3
20260505173004 27 206 24.1 41.8 0.00 0.00 0.00 41 1008.4
20260505172004 27 206 20.9 40.2 0.00 0.00 0.00 41 1008.6
20260505171004 27 207 19.3 37.0 0.00 0.00 0.00 41 1008.6
20260505170004 27 206 27.4 41.8 0.00 0.00 0.00 39 1008.7
20260505165004 27 219 24.1 43.5 0.00 0.00 0.00 40 1008.9
20260505164004 27 226 20.9 38.6 0.00 0.00 0.00 42 1009.1
20260505163004 26 213 22.5 40.2 0.00 0.00 0.00 41 1009.2
20260505162004 27 230 19.3 37.0 0.00 0.00 0.00 41 1009.3
20260505161005 26 230 17.7 35.4 0.00 0.00 0.00 43 1009.4
20260505153004 26 232 16.1 32.2 0.00 0.00 0.00 45 1009.4
20260505152004 25 217 16.1 33.8 0.00 0.00 0.00 46 1009.5
20260505151004 25 225 19.3 35.4 0.00 0.00 0.00 47 1009.5
20260505125004 18 203 11.3 19.3 0.00 0.00 0.00 65 1010.6
20260505124004 18 202 8.0 14.5 0.00 0.00 0.00 66 1010.7
20260505123004 17 199 9.7 16.1 0.00 0.00 0.00 66 1010.6
20260505122004 17 221 4.8 14.5 0.00 0.00 0.00 70 1010.6
20260505121004 16 238 3.2 8.0 0.00 0.00 0.00 72 1010.5
20260505120025 15 232 1.6 6.4 0.00 0.00 0.00 73 1010.3
20260505115004 15 265 1.6 6.4 0.00 0.00 0.00 73 1010.3
20260505114005 15 277 1.6 3.2 0.00 0.00 0.00 75 1010.3
20260505113025 14 277 0.0 3.2 0.00 0.00 0.00 78 1010.1
20260505112025 13 277 0.0 3.2 0.00 0.00 0.00 80 1010.1
20260505111004 12 277 0.0 4.8 0.00 0.00 0.00 82 1010.1
20260505102025 12 160 0.0 3.2 0.00 0.00 0.00 77 1009.6
20260505101004 12 172 3.2 9.7 0.00 0.00 0.00 76 1009.4
20260505100004 12 166 4.8 6.4 0.00 0.00 0.00 79 1009.4
20260505095004 12 162 4.8 8.0 0.00 0.00 0.00 76 1009.4
20260505094004 12 162 3.2 8.0 0.00 0.00 0.00 76 1009.5
20260505093004 13 0 0.0 0.0 0.00 0.00 0.00 75 1009.5
20260505092004 13 0 0.0 0.0 0.00 0.00 0.00 73 1009.4
20260505091025 13 162 1.6 8.0 0.00 0.00 0.00 72 1009.3
20260505090025 13 171 6.4 11.3 0.00 0.00 0.00 72 1009.2
20260505085004 13 192 3.2 4.8 0.00 0.00 0.00 71 1009.2
20260505084025 13 192 3.2 4.8 0.00 0.00 0.00 71 1009.2
20260505083004 14 193 3.2 6.4 0.00 0.00 0.00 71 1009.1
20260505082004 14 195 1.6 4.8 0.00 0.00 0.00 70 1009.1
20260505081025 14 195 3.2 4.8 0.00 0.00 0.00 69 1009.0
20260505080025 15 195 3.2 4.8 0.00 0.00 0.00 69 1009.0
20260505075004 15 195 3.2 6.4 0.00 0.00 0.00 68 1009.0
20260505074004 15 183 4.8 8.0 0.00 0.00 0.00 68 1008.8
20260505073004 15 183 3.2 6.4 0.00 0.00 0.00 68 1008.7
20260505072025 15 183 0.0 4.8 0.00 0.00 0.00 67 1008.8
20260505071004 15 183 3.2 8.0 0.00 0.00 0.00 66 1008.8
20260505070004 16 183 3.2 6.4 0.00 0.00 0.00 65 1008.8
20260505065004 16 183 4.8 8.0 0.00 0.00 0.00 65 1008.8
20260505064004 16 182 4.8 9.7 0.00 0.00 0.00 65 1008.9
20260505063005 16 170 1.6 6.4 0.00 0.00 0.00 65 1009.1
20260505062005 16 166 3.2 4.8 0.00 0.00 0.00 63 1009.1
20260505061004 16 165 3.2 8.0 0.00 0.00 0.00 61 1009.1
20260505060025 16 167 4.8 9.7 0.00 0.00 0.00 60 1009.1
20260505055004 16 180 3.2 8.0 0.00 0.00 0.00 61 1009.1
20260505054025 16 194 3.2 8.0 0.00 0.00 0.00 62 1009.1
20260505053004 16 216 1.6 6.4 0.00 0.00 0.00 64 1009.2
20260505052025 15 218 4.8 11.3 0.00 0.00 0.00 64 1009.2
20260505051025 15 211 6.4 11.3 0.00 0.00 0.00 64 1009.1
20260505041004 16 185 4.8 6.4 0.00 0.00 0.00 59 1008.9
20260505040004 16 187 6.4 9.7 0.00 0.00 0.00 59 1008.8
20260505035005 16 211 3.2 8.0 0.00 0.00 0.00 58 1008.8
20260505034004 16 212 3.2 8.0 0.00 0.00 0.00 57 1008.8
20260505033025 16 205 4.8 8.0 0.00 0.00 0.00 56 1008.8
20260505032004 17 222 3.2 8.0 0.00 0.00 0.00 54 1008.8
20260505031004 17 194 4.8 8.0 0.00 0.00 0.00 53 1008.8
20260505030004 18 185 9.7 22.5 0.00 0.00 0.00 52 1008.7
20260505025004 18 171 11.3 27.4 0.00 0.00 0.00 51 1008.5
20260505024004 18 163 14.5 29.0 0.00 0.00 0.00 51 1008.4
20260505023004 18 160 14.5 27.4 0.00 0.00 0.00 51 1008.4
20260505022004 18 160 14.5 27.4 0.00 0.00 0.00 50 1008.3
20260505021004 18 164 16.1 25.7 0.00 0.00 0.00 50 1008.5
20260505020004 18 164 14.5 27.4 0.00 0.00 0.00 50 1008.5
20260505015004 18 160 14.5 25.7 0.00 0.00 0.00 50 1008.4
20260505014004 18 164 12.9 25.7 0.00 0.00 0.00 49 1008.6
20260505013004 18 167 9.7 19.3 0.00 0.00 0.00 49 1008.7
20260505012025 18 162 9.7 20.9 0.00 0.00 0.00 49 1008.6
20260505011003 18 162 9.7 19.3 0.00 0.00 0.00 48 1008.5
20260505010004 19 162 12.9 25.7 0.00 0.00 0.00 47 1008.3
20260505005004 19 163 14.5 25.7 0.00 0.00 0.00 47 1008.2
20260505004004 20 161 14.5 32.2 0.00 0.00 0.00 46 1008.1
20260505003004 20 162 14.5 27.4 0.00 0.00 0.00 46 1008.1